Hourly Weather Ganta

Today, 12 May, Wednesday

Time Temperature Precipitation Wind Pressure Humidity
00:00 +22°C° 0 mm 0 mps 724 mmHg 95%
01:00 +21°C° 0 mm 0 mps 724 mmHg 97%
02:00 +21°C° 0 mm 0 mps 723 mmHg 98%
03:00 +21°C° 0 mm 0 mps 723 mmHg 98%
04:00 +21°C° 0 mm 0 mps 723 mmHg 99%
05:00 +21°C° 0 mm 0 mps 724 mmHg 99%
06:00 +23°C° 0 mm 0 mps 724 mmHg 91%
07:00 +24°C° 0 mm 0 mps 725 mmHg 84%
08:00 +28°C° 0 mm 1 mps 725 mmHg 76%
09:00 +30°C° 0 mm 1 mps 725 mmHg 67%
10:00 +32°C° 0 mm 1 mps 725 mmHg 59%
11:00 +34°C° 0 mm 1 mps 725 mmHg 50%
12:00 +35°C° 0 mm 1 mps 724 mmHg 46%
13:00 +35°C° 0 mm 1 mps 723 mmHg 43%
14:00 +36°C° 0 mm 1 mps 723 mmHg 39%
15:00 +34°C° 0 mm 1 mps 722 mmHg 47%
16:00 +32°C° 0 mm 1 mps 722 mmHg 54%
17:00 +31°C° 0 mm 2 mps 722 mmHg 62%
18:00 +29°C° 0 mm 1 mps 722 mmHg 70%
19:00 +27°C° 0 mm 1 mps 723 mmHg 79%
20:00 +23°C° 0 mm 0 mps 723 mmHg 88%
21:00 +25°C° 0 mm 1 mps 723 mmHg 90%
22:00 +25°C° 0 mm 1 mps 724 mmHg 93%
23:00 +24°C° 0 mm 1 mps 724 mmHg 96%

Tomorrow, 13 May, Thursday

Time Temperature Precipitation Wind Pressure Humidity
00:00 +24°C° 0.4 mm 1 mps 723 mmHg 97%
01:00 +24°C° 0.4 mm 1 mps 723 mmHg 97%
02:00 +24°C° 0.4 mm 1 mps 723 mmHg 98%
03:00 +24°C° 0 mm 1 mps 723 mmHg 98%
04:00 +24°C° 0 mm 1 mps 723 mmHg 98%
05:00 +24°C° 0 mm 1 mps 723 mmHg 98%
06:00 +25°C° 0 mm 1 mps 724 mmHg 93%
07:00 +26°C° 0 mm 1 mps 724 mmHg 88%
08:00 +27°C° 0 mm 1 mps 725 mmHg 83%
09:00 +29°C° 0 mm 1 mps 724 mmHg 74%
10:00 +31°C° 0 mm 1 mps 724 mmHg 64%
11:00 +33°C° 0 mm 1 mps 723 mmHg 55%
12:00 +34°C° 0 mm 1 mps 722 mmHg 50%
13:00 +36°C° 0 mm 1 mps 722 mmHg 45%
14:00 +37°C° 0 mm 1 mps 721 mmHg 40%
15:00 +35°C° 0.1 mm 1 mps 721 mmHg 48%
16:00 +33°C° 0.1 mm 1 mps 720 mmHg 56%
17:00 +31°C° 0.1 mm 2 mps 720 mmHg 64%
18:00 +29°C° 1.2 mm 2 mps 721 mmHg 74%
19:00 +27°C° 1.2 mm 1 mps 722 mmHg 84%
20:00 +25°C° 1.2 mm 1 mps 723 mmHg 94%
21:00 +25°C° 0.6 mm 1 mps 723 mmHg 96%
22:00 +24°C° 0.6 mm 1 mps 722 mmHg 97%
23:00 +24°C° 0.6 mm 1 mps 722 mmHg 98%

Day after tomorrow, 14 May, Friday

Time Temperature Precipitation Wind Pressure Humidity
00:00 +24°C° 0 mm 1 mps 722 mmHg 98%
01:00 +24°C° 0 mm 1 mps 722 mmHg 98%
02:00 +24°C° 0 mm 1 mps 722 mmHg 98%
03:00 +22°C° 0 mm 0 mps 722 mmHg 98%
04:00 +22°C° 0 mm 0 mps 722 mmHg 99%
05:00 +22°C° 0 mm 0 mps 722 mmHg 99%
06:00 +22°C° 0 mm 0 mps 723 mmHg 96%
07:00 +25°C° 0 mm 1 mps 723 mmHg 94%
08:00 +26°C° 0 mm 1 mps 724 mmHg 92%
09:00 +27°C° 0.1 mm 1 mps 723 mmHg 82%
10:00 +29°C° 0.1 mm 1 mps 723 mmHg 73%
11:00 +31°C° 0.1 mm 1 mps 723 mmHg 63%
12:00 +31°C° 0.1 mm 1 mps 723 mmHg 64%
13:00 +31°C° 0.1 mm 1 mps 722 mmHg 65%
14:00 +31°C° 0.1 mm 1 mps 722 mmHg 66%
15:00 +30°C° 0.2 mm 1 mps 721 mmHg 70%
16:00 +29°C° 0.2 mm 1 mps 721 mmHg 74%
17:00 +29°C° 0.2 mm 1 mps 721 mmHg 78%
18:00 +27°C° 1.3 mm 1 mps 721 mmHg 84%
19:00 +26°C° 1.3 mm 1 mps 722 mmHg 90%
20:00 +24°C° 1.3 mm 1 mps 722 mmHg 96%
21:00 +24°C° 0.2 mm 1 mps 722 mmHg 97%
22:00 +24°C° 0.2 mm 1 mps 723 mmHg 97%
23:00 +24°C° 0.2 mm 1 mps 723 mmHg 98%

15 May, Saturday

Time Temperature Precipitation Wind Pressure Humidity
00:00 +24°C° 0.1 mm 1 mps 723 mmHg 99%
01:00 +22°C° 0.1 mm 0 mps 722 mmHg 99%
02:00 +21°C° 0.1 mm 0 mps 722 mmHg 99%
03:00 +22°C° 0 mm 0 mps 722 mmHg 99%
04:00 +22°C° 0 mm 0 mps 722 mmHg 99%
05:00 +22°C° 0 mm 0 mps 722 mmHg 99%
06:00 +22°C° 0 mm 0 mps 723 mmHg 96%
07:00 +23°C° 0 mm 0 mps 723 mmHg 93%
08:00 +24°C° 0 mm 0 mps 724 mmHg 90%
09:00 +27°C° 0 mm 1 mps 724 mmHg 82%
10:00 +29°C° 0 mm 1 mps 724 mmHg 73%
11:00 +31°C° 0 mm 1 mps 724 mmHg 64%
12:00 +31°C° 0.1 mm 1 mps 723 mmHg 63%
13:00 +32°C° 0.1 mm 1 mps 723 mmHg 61%
14:00 +32°C° 0.1 mm 1 mps 722 mmHg 60%
15:00 +31°C° 0.1 mm 1 mps 722 mmHg 66%
16:00 +30°C° 0.1 mm 1 mps 722 mmHg 72%
17:00 +28°C° 0.1 mm 1 mps 722 mmHg 79%
18:00 +27°C° 1.4 mm 1 mps 722 mmHg 85%
19:00 +24°C° 1.4 mm 0 mps 723 mmHg 91%
20:00 +22°C° 1.4 mm 0 mps 723 mmHg 97%
21:00 +22°C° 0.5 mm 0 mps 723 mmHg 98%
22:00 +22°C° 0.5 mm 0 mps 723 mmHg 98%
23:00 +22°C° 0.5 mm 0 mps 723 mmHg 98%

16 May, Sunday

Time Temperature Precipitation Wind Pressure Humidity
00:00 +22°C° 0.3 mm 0 mps 723 mmHg 99%
01:00 +22°C° 0.3 mm 0 mps 722 mmHg 99%
02:00 +21°C° 0.3 mm 0 mps 722 mmHg 99%
03:00 +21°C° 0 mm 0 mps 722 mmHg 99%
04:00 +21°C° 0 mm 0 mps 722 mmHg 99%
05:00 +21°C° 0 mm 0 mps 722 mmHg 99%
06:00 +22°C° 0 mm 0 mps 723 mmHg 95%
07:00 +24°C° 0 mm 0 mps 723 mmHg 91%
08:00 +27°C° 0 mm 1 mps 724 mmHg 88%
09:00 +27°C° 0.1 mm 0 mps 724 mmHg 77%
10:00 +29°C° 0.1 mm 0 mps 724 mmHg 67%
11:00 +32°C° 0.1 mm 0 mps 724 mmHg 56%
12:00 +30°C° 0.8 mm 0 mps 723 mmHg 62%
13:00 +29°C° 0.8 mm 0 mps 722 mmHg 67%
14:00 +30°C° 0.8 mm 1 mps 721 mmHg 72%
15:00 +28°C° 0.1 mm 0 mps 721 mmHg 73%
16:00 +27°C° 0.1 mm 0 mps 721 mmHg 74%
17:00 +27°C° 0.1 mm 0 mps 721 mmHg 76%
18:00 +26°C° 0.2 mm 0 mps 722 mmHg 82%
19:00 +24°C° 0.2 mm 0 mps 722 mmHg 88%
20:00 +25°C° 0.2 mm 1 mps 722 mmHg 94%
21:00 +25°C° 0.8 mm 1 mps 723 mmHg 95%
22:00 +22°C° 0.8 mm 0 mps 723 mmHg 97%
23:00 +22°C° 0.8 mm 0 mps 723 mmHg 99%

17 May, Monday

Time Temperature Precipitation Wind Pressure Humidity
00:00 +22°C° 0.1 mm 0 mps 723 mmHg 99%
01:00 +22°C° 0.1 mm 0 mps 723 mmHg 99%
02:00 +22°C° 0.1 mm 0 mps 722 mmHg 99%
03:00 +22°C° 0 mm 0 mps 723 mmHg 99%
04:00 +22°C° 0 mm 0 mps 723 mmHg 99%
05:00 +22°C° 0 mm 0 mps 723 mmHg 99%
06:00 +22°C° 0 mm 0 mps 724 mmHg 97%
07:00 +23°C° 0 mm 0 mps 724 mmHg 96%
08:00 +23°C° 0 mm 0 mps 724 mmHg 95%
09:00 +25°C° 0 mm 0 mps 724 mmHg 84%
10:00 +30°C° 0 mm 1 mps 724 mmHg 72%
11:00 +32°C° 0 mm 1 mps 724 mmHg 61%
12:00 +33°C° 0 mm 1 mps 724 mmHg 56%
13:00 +34°C° 0 mm 1 mps 723 mmHg 52%
14:00 +33°C° 0 mm 0 mps 722 mmHg 47%
15:00 +32°C° 1.3 mm 1 mps 722 mmHg 61%
16:00 +29°C° 1.3 mm 1 mps 721 mmHg 76%
17:00 +27°C° 1.3 mm 1 mps 721 mmHg 90%
18:00 +26°C° 0.5 mm 1 mps 722 mmHg 93%
19:00 +25°C° 0.5 mm 1 mps 722 mmHg 95%
20:00 +25°C° 0.5 mm 1 mps 723 mmHg 97%
21:00 +25°C° 0.6 mm 1 mps 723 mmHg 98%
22:00 +24°C° 0.6 mm 1 mps 724 mmHg 98%
23:00 +24°C° 0.6 mm 1 mps 724 mmHg 99%
Show more

We Need Your Consent

Meteoprog and our Service Providers may store and access personal data such as cookies, device identifiers or other similar technologies on your device and process such data to personalise content and ads, as well as provide social media features and to analyse the traffic.

  • Store and/or access information on your device

    Cookies, device identifiers or other information can be stored or accessed on your device for the purposes indicated above.

  • Personalised ads and content, ad and content measurement, audience insights, and products development

    Ads and content can be personalised based on a profile. More data can be added to better personalise ads and content. Ad and content performance can be measured. Insights about the audience who saw the ads and content can be derived. Such data can be used to develop or improve user’s experience, systems and software.

By clicking ‘I Agree’ you will allow the use of indicated cookies, device identifiers, web beacons or other similar technologies. Your settings can be changed in the browser on your device.

For certain purposes, legitimate interests may be relied on, rather than consent. You can read more about this in our Privacy and Cookie Policy.